Location: El Peñón
(10.3719°N, 67.3319°W)
Time: 05:01:07
(UTC+00:00)

Delta 202 - Pass Details

Date: 13 June 2024
Orbit: 781 x 2712 km, 18.5° (Epoch: 21 July)

Event Time Altitude Azimuth Distance (km) Brightness Sun altitude
Rises 23:03:02 0° 289° (WNW) 3,852 10.0 -3.4°
Reaches altitude 10° 23:06:08 10° 294° (WNW) 2,685 8.4 -4.1°
Maximum altitude 23:12:02 49° 9° (N) 1,039 4.4 -5.5°
Drops below altitude 10° 23:17:06 10° 84° (E) 2,317 5.5 -6.6°
Enters shadow 23:18:23 - 88° (E) 2,801 5.9 -6.9°
